Time,TemperatureF,DewpointF,PressureIn,WindDirection,WindDirectionDegrees,WindSpeedMPH,WindSpeedGustMPH,Humidity,HourlyPrecipIn,Conditions,Clouds,dailyrainin,SolarRadiationWatts/m^2,SoftwareType,DateUTC
2013-06-21 00:00:00,82.1,67.3,29.66,SSW,209,7.0,14.0,61,0.00,,,0.00,0,WeatherCatV1.15B25,2013-06-21 05:00:00,
2013-06-21 00:05:00,82.1,67.3,29.66,ESE,115,12.0,13.0,61,0.00,,,0.00,0,WeatherCatV1.15B25,2013-06-21 05:05:00,
2013-06-21 00:10:00,82.1,67.3,29.66,SE,135,2.0,14.0,61,0.00,,,0.00,0,WeatherCatV1.15B25,2013-06-21 05:10:00,
2013-06-21 00:15:00,81.9,67.6,29.66,SSE,167,0.0,6.0,62,0.00,,,0.00,0,WeatherCatV1.15B25,2013-06-21 05:15:00,
2013-06-21 00:20:00,81.8,67.5,29.66,SSW,198,4.0,14.0,62,0.00,,,0.00,0,WeatherCatV1.15B25,2013-06-21 05:20:00,
2013-06-21 00:25:00,81.7,67.4,29.66,SSE,166,1.0,15.0,62,0.00,,,0.00,0,WeatherCatV1.15B25,2013-06-21 05:25:00,
2013-06-21 00:30:00,81.6,67.8,29.66,South,178,3.0,12.0,63,0.00,,,0.00,0,WeatherCatV1.15B25,2013-06-21 05:30:00,
2013-06-21 00:35:00,81.5,67.7,29.65,South,188,3.0,9.0,63,0.00,,,0.00,0,WeatherCatV1.15B25,2013-06-21 05:35:00,
2013-06-21 00:40:00,81.4,67.6,29.65,SSE,166,5.0,14.0,63,0.00,,,0.00,0,WeatherCatV1.15B25,2013-06-21 05:40:00,
2013-06-21 00:45:00,81.4,67.6,29.65,South,188,12.0,17.0,63,0.00,,,0.00,0,WeatherCatV1.15B25,2013-06-21 05:45:00,
2013-06-21 00:50:00,81.4,67.6,29.65,South,171,6.0,12.0,63,0.00,,,0.00,0,WeatherCatV1.15B25,2013-06-21 05:50:00,
2013-06-21 00:55:00,81.3,67.5,29.65,SW,221,6.0,9.0,63,0.00,,,0.00,0,WeatherCatV1.15B25,2013-06-21 05:55:00,
2013-06-21 01:00:00,81.2,67.8,29.65,South,182,7.0,12.0,64,0.00,,,0.00,0,WeatherCatV1.15B25,2013-06-21 06:00:00,
2013-06-21 01:05:00,81.1,67.7,29.64,SSW,200,7.0,14.0,64,0.00,,,0.00,0,WeatherCatV1.15B25,2013-06-21 06:05:00,
2013-06-21 01:10:00,80.9,68.0,29.64,SSW,200,7.0,16.0,65,0.00,,,0.00,0,WeatherCatV1.15B25,2013-06-21 06:10:00,
2013-06-21 01:15:00,80.8,67.9,29.64,SE,146,6.0,9.0,65,0.00,,,0.00,0,WeatherCatV1.15B25,2013-06-21 06:15:00,
2013-06-21 01:20:00,80.7,67.8,29.64,SE,146,7.0,21.0,65,0.00,,,0.00,0,WeatherCatV1.15B25,2013-06-21 06:20:00,
2013-06-21 01:25:00,80.7,68.3,29.64,East,88,6.0,15.0,66,0.00,,,0.00,0,WeatherCatV1.15B25,2013-06-21 06:25:00,
2013-06-21 01:30:00,80.7,68.3,29.65,South,175,3.0,13.0,66,0.00,,,0.00,0,WeatherCatV1.15B25,2013-06-21 06:30:00,
2013-06-21 01:35:00,80.5,68.5,29.65,SSE,161,3.0,12.0,67,0.00,,,0.00,0,WeatherCatV1.15B25,2013-06-21 06:35:00,
2013-06-21 01:40:00,80.4,68.4,29.66,South,186,2.0,9.0,67,0.00,,,0.00,0,WeatherCatV1.15B25,2013-06-21 06:40:00,
2013-06-21 01:45:00,80.3,68.3,29.66,SSW,199,5.0,7.0,67,0.00,,,0.00,0,WeatherCatV1.15B25,2013-06-21 06:45:00,
2013-06-21 01:50:00,80.2,68.2,29.66,South,175,2.0,5.0,67,0.00,,,0.00,0,WeatherCatV1.15B25,2013-06-21 06:50:00,
2013-06-21 01:55:00,80.1,68.6,29.66,South,185,12.0,12.0,68,0.00,,,0.00,0,WeatherCatV1.15B25,2013-06-21 06:55:00,
2013-06-21 02:00:00,80.1,68.6,29.66,SSW,211,5.0,9.0,68,0.00,,,0.00,0,WeatherCatV1.15B25,2013-06-21 07:00:00,
2013-06-21 02:05:00,80.0,68.5,29.67,South,176,3.0,14.0,68,0.00,,,0.00,0,WeatherCatV1.15B25,2013-06-21 07:05:00,
2013-06-21 02:10:00,80.0,68.5,29.66,South,191,3.0,13.0,68,0.00,,,0.00,0,WeatherCatV1.15B25,2013-06-21 07:10:00,
2013-06-21 02:15:00,79.9,68.8,29.66,South,187,9.0,10.0,69,0.00,,,0.00,0,WeatherCatV1.15B25,2013-06-21 07:15:00,
2013-06-21 02:20:00,79.7,68.6,29.66,SSE,164,4.0,16.0,69,0.00,,,0.00,0,WeatherCatV1.15B25,2013-06-21 07:20:00,
2013-06-21 02:25:00,79.7,68.6,29.66,South,184,6.0,16.0,69,0.00,,,0.00,0,WeatherCatV1.15B25,2013-06-21 07:25:00,
2013-06-21 02:30:00,79.6,68.5,29.65,South,186,10.0,18.0,69,0.00,,,0.00,0,WeatherCatV1.15B25,2013-06-21 07:30:00,
2013-06-21 02:35:00,79.5,68.8,29.65,SW,216,7.0,9.0,70,0.00,,,0.00,0,WeatherCatV1.15B25,2013-06-21 07:35:00,
2013-06-21 02:40:00,79.4,68.7,29.65,South,169,4.0,12.0,70,0.00,,,0.00,0,WeatherCatV1.15B25,2013-06-21 07:40:00,
2013-06-21 02:45:00,79.1,68.5,29.65,SSW,201,3.0,11.0,70,0.00,,,0.00,0,WeatherCatV1.15B25,2013-06-21 07:45:00,
2013-06-21 02:50:00,78.9,68.7,29.65,SSW,193,4.0,12.0,71,0.00,,,0.00,0,WeatherCatV1.15B25,2013-06-21 07:50:00,
2013-06-21 02:55:00,78.7,68.5,29.65,SSE,163,3.0,13.0,71,0.00,,,0.00,0,WeatherCatV1.15B25,2013-06-21 07:55:00,
2013-06-21 03:00:00,78.5,68.7,29.64,SSE,167,5.0,14.0,72,0.00,,,0.00,0,WeatherCatV1.15B25,2013-06-21 08:00:00,
2013-06-21 03:05:00,78.3,68.5,29.64,SSE,148,9.0,11.0,72,0.00,,,0.00,0,WeatherCatV1.15B25,2013-06-21 08:05:00,
2013-06-21 03:10:00,78.1,68.3,29.64,SSE,160,4.0,11.0,72,0.00,,,0.00,0,WeatherCatV1.15B25,2013-06-21 08:10:00,
2013-06-21 03:15:00,77.9,68.5,29.64,South,191,2.0,13.0,73,0.00,,,0.00,0,WeatherCatV1.15B25,2013-06-21 08:15:00,
2013-06-21 03:20:00,77.8,68.4,29.63,SW,223,12.0,12.0,73,0.00,,,0.00,0,WeatherCatV1.15B25,2013-06-21 08:20:00,
2013-06-21 03:25:00,77.7,68.3,29.63,SSW,199,4.0,13.0,73,0.00,,,0.00,0,WeatherCatV1.15B25,2013-06-21 08:25:00,
2013-06-21 03:30:00,77.6,68.6,29.63,SSE,163,4.0,12.0,74,0.00,,,0.00,0,WeatherCatV1.15B25,2013-06-21 08:30:00,
2013-06-21 03:35:00,77.4,68.4,29.62,SSE,151,9.0,12.0,74,0.00,,,0.00,0,WeatherCatV1.15B25,2013-06-21 08:35:00,
2013-06-21 03:40:00,77.3,68.3,29.62,SSW,197,6.0,12.0,74,0.00,,,0.00,0,WeatherCatV1.15B25,2013-06-21 08:40:00,
2013-06-21 03:45:00,77.2,68.3,29.62,SSE,155,4.0,7.0,74,0.00,,,0.00,0,WeatherCatV1.15B25,2013-06-21 08:45:00,
2013-06-21 03:50:00,77.1,68.2,29.62,South,189,4.0,6.0,74,0.00,,,0.00,0,WeatherCatV1.15B25,2013-06-21 08:50:00,
2013-06-21 03:55:00,77.0,68.4,29.62,SSW,210,13.0,13.0,75,0.00,,,0.00,0,WeatherCatV1.15B25,2013-06-21 08:55:00,
2013-06-21 04:00:00,76.9,68.4,29.62,SSE,162,6.0,10.0,75,0.00,,,0.00,0,WeatherCatV1.15B25,2013-06-21 09:00:00,
2013-06-21 04:05:00,76.9,68.4,29.62,South,182,6.0,9.0,75,0.00,,,0.00,0,WeatherCatV1.15B25,2013-06-21 09:05:00,
2013-06-21 04:10:00,76.8,68.3,29.62,SE,138,4.0,15.0,75,0.00,,,0.00,0,WeatherCatV1.15B25,2013-06-21 09:10:00,
2013-06-21 04:15:00,76.8,68.3,29.62,South,169,4.0,14.0,75,0.00,,,0.00,0,WeatherCatV1.15B25,2013-06-21 09:15:00,
2013-06-21 04:20:00,76.7,68.2,29.62,ESE,121,9.0,15.0,75,0.00,,,0.00,0,WeatherCatV1.15B25,2013-06-21 09:20:00,
2013-06-21 04:25:00,76.7,68.2,29.62,SW,215,16.0,19.0,75,0.00,,,0.00,0,WeatherCatV1.15B25,2013-06-21 09:25:00,
2013-06-21 04:30:00,76.8,68.3,29.63,SSE,153,3.0,15.0,75,0.00,,,0.00,0,WeatherCatV1.15B25,2013-06-21 09:30:00,
2013-06-21 04:35:00,76.8,68.3,29.63,SSW,200,10.0,10.0,75,0.00,,,0.00,0,WeatherCatV1.15B25,2013-06-21 09:35:00,
2013-06-21 04:40:00,76.8,68.3,29.62,South,182,5.0,15.0,75,0.00,,,0.00,0,WeatherCatV1.15B25,2013-06-21 09:40:00,
2013-06-21 04:45:00,76.8,68.3,29.62,South,191,4.0,13.0,75,0.00,,,0.00,0,WeatherCatV1.15B25,2013-06-21 09:45:00,
2013-06-21 04:50:00,76.8,68.3,29.63,SSW,208,12.0,17.0,75,0.00,,,0.00,0,WeatherCatV1.15B25,2013-06-21 09:50:00,
2013-06-21 04:55:00,76.8,67.9,29.63,SSE,148,4.0,14.0,74,0.00,,,0.00,0,WeatherCatV1.15B25,2013-06-21 09:55:00,
2013-06-21 05:00:00,76.6,68.1,29.62,SSE,166,7.0,10.0,75,0.00,,,0.00,0,WeatherCatV1.15B25,2013-06-21 10:00:00,
2013-06-21 05:05:00,76.4,67.9,29.62,South,189,6.0,11.0,75,0.00,,,0.00,0,WeatherCatV1.15B25,2013-06-21 10:05:00,
2013-06-21 05:10:00,76.3,67.8,29.62,SSW,202,3.0,11.0,75,0.00,,,0.00,0,WeatherCatV1.15B25,2013-06-21 10:10:00,
2013-06-21 05:15:00,76.2,67.7,29.61,South,178,9.0,13.0,75,0.00,,,0.00,0,WeatherCatV1.15B25,2013-06-21 10:15:00,
2013-06-21 05:20:00,76.3,67.8,29.61,SW,222,11.0,14.0,75,0.00,,,0.00,0,WeatherCatV1.15B25,2013-06-21 10:20:00,
2013-06-21 05:25:00,76.2,67.7,29.61,South,173,4.0,9.0,75,0.00,,,0.00,0,WeatherCatV1.15B25,2013-06-21 10:25:00,
2013-06-21 05:30:00,76.0,67.5,29.61,South,188,0.0,9.0,75,0.00,,,0.00,0,WeatherCatV1.15B25,2013-06-21 10:30:00,
2013-06-21 05:35:00,75.8,67.7,29.60,South,171,10.0,10.0,76,0.00,,,0.00,0,WeatherCatV1.15B25,2013-06-21 10:35:00,
2013-06-21 05:40:00,75.7,67.6,29.60,South,179,6.0,6.0,76,0.00,,,0.00,0,WeatherCatV1.15B25,2013-06-21 10:40:00,
2013-06-21 05:45:00,75.6,67.5,29.60,SE,140,0.0,2.0,76,0.00,,,0.00,0,WeatherCatV1.15B25,2013-06-21 10:45:00,
2013-06-21 05:50:00,75.4,67.3,29.60,SE,144,4.0,5.0,76,0.00,,,0.00,0,WeatherCatV1.15B25,2013-06-21 10:50:00,
2013-06-21 05:55:00,75.5,67.4,29.60,SSW,208,0.0,2.0,76,0.00,,,0.00,0,WeatherCatV1.15B25,2013-06-21 10:55:00,
2013-06-21 06:00:00,75.4,67.3,29.60,SSW,207,0.0,0.0,76,0.00,,,0.00,0,WeatherCatV1.15B25,2013-06-21 11:00:00,
2013-06-21 06:05:00,75.0,66.9,29.60,SSW,207,0.0,3.0,76,0.00,,,0.00,0,WeatherCatV1.15B25,2013-06-21 11:05:00,
2013-06-21 06:10:00,74.7,67.0,29.60,SE,132,0.0,5.0,77,0.00,,,0.00,0,WeatherCatV1.15B25,2013-06-21 11:10:00,
2013-06-21 06:15:00,74.9,66.8,29.59,SE,142,1.0,10.0,76,0.00,,,0.00,7,WeatherCatV1.15B25,2013-06-21 11:15:00,
2013-06-21 06:20:00,75.1,67.0,29.60,ESE,111,2.0,13.0,76,0.00,,,0.00,12,WeatherCatV1.15B25,2013-06-21 11:20:00,
2013-06-21 06:25:00,75.3,67.6,29.61,SSE,161,2.0,13.0,77,0.00,,,0.00,16,WeatherCatV1.15B25,2013-06-21 11:25:00,
2013-06-21 06:30:00,75.4,67.7,29.62,South,179,4.0,20.0,77,0.00,,,0.00,21,WeatherCatV1.15B25,2013-06-21 11:30:00,
2013-06-21 06:35:00,75.4,67.7,29.62,SSW,201,14.0,15.0,77,0.00,,,0.00,28,WeatherCatV1.15B25,2013-06-21 11:35:00,
2013-06-21 06:40:00,75.7,67.6,29.62,WSW,244,6.0,16.0,76,0.00,,,0.00,32,WeatherCatV1.15B25,2013-06-21 11:40:00,
2013-06-21 06:45:00,75.7,67.6,29.64,South,190,6.0,9.0,76,0.00,,,0.00,32,WeatherCatV1.15B25,2013-06-21 11:45:00,
2013-06-21 06:50:00,75.7,67.6,29.63,SSE,165,3.0,14.0,76,0.00,,,0.00,40,WeatherCatV1.15B25,2013-06-21 11:50:00,
2013-06-21 06:55:00,75.7,67.6,29.64,SSW,194,5.0,18.0,76,0.00,,,0.00,46,WeatherCatV1.15B25,2013-06-21 11:55:00,
2013-06-21 07:00:00,75.7,67.6,29.63,South,188,9.0,10.0,76,0.00,,,0.00,51,WeatherCatV1.15B25,2013-06-21 12:00:00,
2013-06-21 07:05:00,75.6,67.9,29.63,SSW,192,0.0,10.0,77,0.00,,,0.00,54,WeatherCatV1.15B25,2013-06-21 12:05:00,
2013-06-21 07:10:00,75.4,67.7,29.63,South,169,3.0,3.0,77,0.00,,,0.00,63,WeatherCatV1.15B25,2013-06-21 12:10:00,
2013-06-21 07:15:00,75.2,67.5,29.63,South,172,2.0,7.0,77,0.00,,,0.00,77,WeatherCatV1.15B25,2013-06-21 12:15:00,
2013-06-21 07:20:00,75.1,67.8,29.63,South,179,3.0,4.0,78,0.00,,,0.00,91,WeatherCatV1.15B25,2013-06-21 12:20:00,
2013-06-21 07:25:00,75.1,67.8,29.63,South,180,2.0,6.0,78,0.00,,,0.00,97,WeatherCatV1.15B25,2013-06-21 12:25:00,
2013-06-21 07:30:00,75.1,67.8,29.63,South,183,4.0,6.0,78,0.00,,,0.00,84,WeatherCatV1.15B25,2013-06-21 12:30:00,
2013-06-21 07:35:00,75.1,67.8,29.62,South,184,2.0,4.0,78,0.00,,,0.00,72,WeatherCatV1.15B25,2013-06-21 12:35:00,
2013-06-21 07:40:00,75.2,67.5,29.62,South,191,4.0,7.0,77,0.00,,,0.00,70,WeatherCatV1.15B25,2013-06-21 12:40:00,
2013-06-21 07:45:00,75.4,67.3,29.62,SSW,196,6.0,10.0,76,0.00,,,0.00,76,WeatherCatV1.15B25,2013-06-21 12:45:00,
2013-06-21 07:50:00,76.4,66.7,29.62,SSE,158,7.0,9.0,72,0.00,,,0.00,83,WeatherCatV1.15B25,2013-06-21 12:50:00,
2013-06-21 07:55:00,77.4,66.0,29.62,SSW,203,2.0,4.0,68,0.00,,,0.00,90,WeatherCatV1.15B25,2013-06-21 12:55:00,
2013-06-21 08:00:00,77.6,66.6,29.62,SSW,196,1.0,2.0,69,0.00,,,0.00,100,WeatherCatV1.15B25,2013-06-21 13:00:00,
2013-06-21 08:05:00,77.6,65.8,29.62,SSW,192,2.0,5.0,67,0.00,,,0.00,113,WeatherCatV1.15B25,2013-06-21 13:05:00,
2013-06-21 08:10:00,78.4,64.7,29.62,SW,223,3.0,11.0,63,0.00,,,0.00,125,WeatherCatV1.15B25,2013-06-21 13:10:00,
2013-06-21 08:15:00,79.3,63.2,29.63,SW,236,3.0,9.0,58,0.00,,,0.00,139,WeatherCatV1.15B25,2013-06-21 13:15:00,
2013-06-21 08:20:00,80.2,63.1,29.62,South,172,1.0,5.0,56,0.00,,,0.00,148,WeatherCatV1.15B25,2013-06-21 13:20:00,
2013-06-21 08:25:00,80.9,61.6,29.62,SSW,199,3.0,9.0,52,0.00,,,0.00,151,WeatherCatV1.15B25,2013-06-21 13:25:00,
2013-06-21 08:30:00,81.3,61.4,29.62,SW,232,6.0,11.0,51,0.00,,,0.00,172,WeatherCatV1.15B25,2013-06-21 13:30:00,
2013-06-21 08:35:00,81.5,61.6,29.62,SW,233,6.0,11.0,51,0.00,,,0.00,313,WeatherCatV1.15B25,2013-06-21 13:35:00,
2013-06-21 08:40:00,82.0,60.9,29.62,SW,224,5.0,16.0,49,0.00,,,0.00,378,WeatherCatV1.15B25,2013-06-21 13:40:00,
2013-06-21 08:45:00,82.4,61.3,29.62,SSW,207,4.0,11.0,49,0.00,,,0.00,436,WeatherCatV1.15B25,2013-06-21 13:45:00,
2013-06-21 08:50:00,82.9,61.7,29.63,SW,234,6.0,13.0,49,0.00,,,0.00,450,WeatherCatV1.15B25,2013-06-21 13:50:00,
2013-06-21 08:55:00,83.4,61.6,29.63,South,191,8.0,10.0,48,0.00,,,0.00,464,WeatherCatV1.15B25,2013-06-21 13:55:00,
2013-06-21 09:00:00,83.6,61.2,29.64,SW,225,10.0,12.0,47,0.00,,,0.00,380,WeatherCatV1.15B25,2013-06-21 14:00:00,
2013-06-21 09:05:00,83.8,61.4,29.64,South,178,3.0,12.0,47,0.00,,,0.00,390,WeatherCatV1.15B25,2013-06-21 14:05:00,
2013-06-21 09:10:00,83.9,62.1,29.65,South,184,3.0,7.0,48,0.00,,,0.00,443,WeatherCatV1.15B25,2013-06-21 14:10:00,
2013-06-21 09:15:00,84.1,61.7,29.65,SSW,194,0.0,4.0,47,0.00,,,0.00,499,WeatherCatV1.15B25,2013-06-21 14:15:00,
2013-06-21 09:20:00,84.6,62.1,29.65,SSE,168,0.0,6.0,47,0.00,,,0.00,515,WeatherCatV1.15B25,2013-06-21 14:20:00,
2013-06-21 09:25:00,85.2,62.7,29.66,South,190,0.0,3.0,47,0.00,,,0.00,462,WeatherCatV1.15B25,2013-06-21 14:25:00,
2013-06-21 09:30:00,85.4,62.8,29.66,SSW,196,3.0,7.0,47,0.00,,,0.00,490,WeatherCatV1.15B25,2013-06-21 14:30:00,
2013-06-21 09:35:00,85.4,61.6,29.66,SSE,154,0.0,6.0,45,0.00,,,0.00,462,WeatherCatV1.15B25,2013-06-21 14:35:00,
2013-06-21 09:37:00,85.4,61.6,29.66,SSE,153,0.0,4.0,45,0.00,,,0.00,482,WeatherCatV1.15B25,2013-06-21 14:37:00,
2013-06-21 09:42:00,85.7,63.1,29.66,SSE,155,0.0,3.0,47,0.00,,,0.00,480,WeatherCatV1.15B25,2013-06-21 14:42:00,
2013-06-21 09:47:00,85.7,63.7,29.66,South,190,3.0,6.0,48,0.00,,,0.00,541,WeatherCatV1.15B25,2013-06-21 14:47:00,
2013-06-21 09:52:00,85.6,63.6,29.66,SSE,153,4.0,5.0,48,0.00,,,0.00,552,WeatherCatV1.15B25,2013-06-21 14:52:00,
2013-06-21 09:57:00,85.3,62.1,29.67,ESE,123,2.0,11.0,46,0.00,,,0.00,577,WeatherCatV1.15B25,2013-06-21 14:57:00,
2013-06-21 10:02:00,85.3,62.1,29.66,SW,229,4.0,10.0,46,0.00,,,0.00,603,WeatherCatV1.15B25,2013-06-21 15:02:00,
2013-06-21 10:06:00,85.1,62.0,29.66,SSW,194,2.0,8.0,46,0.00,,,0.00,613,WeatherCatV1.15B25,2013-06-21 15:06:00,
2013-06-21 10:07:00,85.1,62.6,29.66,SSE,164,2.0,6.0,47,0.00,,,0.00,636,WeatherCatV1.15B25,2013-06-21 15:07:00,
2013-06-21 10:12:00,85.0,62.5,29.66,SSW,211,3.0,7.0,47,0.00,,,0.00,628,WeatherCatV1.15B25,2013-06-21 15:12:00,
2013-06-21 10:17:00,85.4,64.0,29.65,SE,132,1.0,6.0,49,0.00,,,0.00,608,WeatherCatV1.15B25,2013-06-21 15:17:00,
2013-06-21 10:22:00,85.3,64.5,29.66,SE,136,5.0,7.0,50,0.00,,,0.00,610,WeatherCatV1.15B25,2013-06-21 15:22:00,
2013-06-21 10:27:00,85.0,65.4,29.66,SE,144,4.0,7.0,52,0.00,,,0.00,659,WeatherCatV1.15B25,2013-06-21 15:27:00,
2013-06-21 10:32:00,84.9,66.4,29.66,SE,136,5.0,7.0,54,0.00,,,0.00,622,WeatherCatV1.15B25,2013-06-21 15:32:00,
2013-06-21 10:33:00,84.8,65.7,29.66,SSE,153,6.0,7.0,53,0.00,,,0.00,626,WeatherCatV1.15B25,2013-06-21 15:33:00,
2013-06-21 10:36:00,84.5,67.6,29.65,SSE,153,6.0,11.0,57,0.00,,,0.00,649,WeatherCatV1.15B25,2013-06-21 15:36:00,
2013-06-21 10:37:00,84.3,67.9,29.66,SE,134,5.0,11.0,58,0.00,,,0.00,657,WeatherCatV1.15B25,2013-06-21 15:37:00,
2013-06-21 10:42:00,82.9,67.1,29.66,South,180,7.0,13.0,59,0.00,,,0.00,621,WeatherCatV1.15B25,2013-06-21 15:42:00,
2013-06-21 10:47:00,82.5,67.2,29.65,SE,143,5.0,12.0,60,0.00,,,0.00,652,WeatherCatV1.15B25,2013-06-21 15:47:00,
2013-06-21 10:52:00,82.7,68.3,29.66,East,92,5.0,12.0,62,0.00,,,0.00,679,WeatherCatV1.15B25,2013-06-21 15:52:00,
2013-06-21 10:57:00,83.0,67.2,29.66,SW,232,5.0,10.0,59,0.00,,,0.00,689,WeatherCatV1.15B25,2013-06-21 15:57:00,
2013-06-21 11:02:00,83.3,67.4,29.65,SE,140,10.0,17.0,59,0.00,,,0.00,721,WeatherCatV1.15B25,2013-06-21 16:02:00,
2013-06-21 11:07:00,83.5,66.6,29.65,SSW,205,9.0,15.0,57,0.00,,,0.00,719,WeatherCatV1.15B25,2013-06-21 16:07:00,
2013-06-21 11:12:00,83.8,67.4,29.65,SW,223,0.0,10.0,58,0.00,,,0.00,749,WeatherCatV1.15B25,2013-06-21 16:12:00,
2013-06-21 11:17:00,84.3,67.9,29.65,ESE,109,8.0,16.0,58,0.00,,,0.00,677,WeatherCatV1.15B25,2013-06-21 16:17:00,
2013-06-21 11:22:00,84.5,68.1,29.65,SSE,168,7.0,15.0,58,0.00,,,0.00,763,WeatherCatV1.15B25,2013-06-21 16:22:00,
2013-06-21 11:27:00,84.8,67.8,29.65,SSW,200,12.0,19.0,57,0.00,,,0.00,780,WeatherCatV1.15B25,2013-06-21 16:27:00,
2013-06-21 11:32:00,84.9,66.9,29.66,South,173,11.0,20.0,55,0.00,,,0.00,786,WeatherCatV1.15B25,2013-06-21 16:32:00,
2013-06-21 11:37:00,85.0,66.5,29.65,SE,127,6.0,17.0,54,0.00,,,0.00,809,WeatherCatV1.15B25,2013-06-21 16:37:00,
2013-06-21 11:42:00,85.1,66.6,29.66,South,190,6.0,15.0,54,0.00,,,0.00,826,WeatherCatV1.15B25,2013-06-21 16:42:00,
2013-06-21 11:47:00,85.9,67.3,29.66,South,173,5.0,13.0,54,0.00,,,0.00,830,WeatherCatV1.15B25,2013-06-21 16:47:00,
2013-06-21 11:52:00,85.6,66.5,29.65,SW,219,12.0,23.0,53,0.00,,,0.00,833,WeatherCatV1.15B25,2013-06-21 16:52:00,
2013-06-21 11:57:00,85.9,66.7,29.65,SW,226,15.0,21.0,53,0.00,,,0.00,831,WeatherCatV1.15B25,2013-06-21 16:57:00,
2013-06-21 12:02:00,86.0,67.4,29.65,SSW,192,5.0,18.0,54,0.00,,,0.00,844,WeatherCatV1.15B25,2013-06-21 17:02:00,
2013-06-21 12:07:00,86.4,66.7,29.65,SSW,198,18.0,24.0,52,0.00,,,0.00,853,WeatherCatV1.15B25,2013-06-21 17:07:00,
2013-06-21 12:12:00,86.9,67.7,29.65,SE,136,9.0,9.0,53,0.00,,,0.00,842,WeatherCatV1.15B25,2013-06-21 17:12:00,
2013-06-21 12:17:00,87.3,66.9,29.65,South,178,12.0,17.0,51,0.00,,,0.00,867,WeatherCatV1.15B25,2013-06-21 17:17:00,
2013-06-21 12:22:00,87.9,67.5,29.65,SSW,194,10.0,10.0,51,0.00,,,0.00,861,WeatherCatV1.15B25,2013-06-21 17:22:00,
2013-06-21 12:27:00,88.1,67.1,29.65,South,171,5.0,18.0,50,0.00,,,0.00,872,WeatherCatV1.15B25,2013-06-21 17:27:00,
2013-06-21 12:32:00,88.4,67.4,29.65,SSW,211,14.0,14.0,50,0.00,,,0.00,886,WeatherCatV1.15B25,2013-06-21 17:32:00,
2013-06-21 12:37:00,88.9,67.2,29.64,South,186,13.0,15.0,49,0.00,,,0.00,905,WeatherCatV1.15B25,2013-06-21 17:37:00,
2013-06-21 12:42:00,89.3,66.4,29.64,South,186,6.0,17.0,47,0.00,,,0.00,902,WeatherCatV1.15B25,2013-06-21 17:42:00,
2013-06-21 12:46:00,89.8,66.2,29.64,SSW,198,7.0,16.0,46,0.00,,,0.00,914,WeatherCatV1.15B25,2013-06-21 17:46:00,
2013-06-21 12:47:00,89.9,66.3,29.64,SSW,195,7.0,16.0,46,0.00,,,0.00,898,WeatherCatV1.15B25,2013-06-21 17:47:00,
2013-06-21 12:52:00,90.2,65.9,29.64,South,184,16.0,16.0,45,0.00,,,0.00,919,WeatherCatV1.15B25,2013-06-21 17:52:00,
2013-06-21 12:57:00,89.9,65.0,29.64,South,179,5.0,16.0,44,0.00,,,0.00,930,WeatherCatV1.15B25,2013-06-21 17:57:00,
2013-06-21 13:02:00,90.1,65.9,29.64,SSE,167,6.0,18.0,45,0.00,,,0.00,944,WeatherCatV1.15B25,2013-06-21 18:02:00,
2013-06-21 13:07:00,90.5,66.8,29.64,SSW,202,4.0,15.0,46,0.00,,,0.00,939,WeatherCatV1.15B25,2013-06-21 18:07:00,
2013-06-21 13:12:00,90.6,66.3,29.63,South,190,13.0,17.0,45,0.00,,,0.00,953,WeatherCatV1.15B25,2013-06-21 18:12:00,
2013-06-21 13:17:00,91.0,67.3,29.63,SSW,211,9.0,14.0,46,0.00,,,0.00,965,WeatherCatV1.15B25,2013-06-21 18:17:00,
2013-06-21 13:22:00,90.7,67.0,29.63,SW,232,6.0,22.0,46,0.00,,,0.00,969,WeatherCatV1.15B25,2013-06-21 18:22:00,
2013-06-21 13:23:00,90.8,67.1,29.63,SSW,213,19.0,19.0,46,0.00,,,0.00,969,WeatherCatV1.15B25,2013-06-21 18:23:00,
2013-06-21 13:28:00,90.8,67.1,29.63,SSW,207,20.0,20.0,46,0.00,,,0.00,979,WeatherCatV1.15B25,2013-06-21 18:28:00,
2013-06-21 13:33:00,91.3,67.6,29.62,SE,125,5.0,15.0,46,0.00,,,0.00,972,WeatherCatV1.15B25,2013-06-21 18:33:00,
2013-06-21 13:37:00,91.5,67.1,29.62,South,178,11.0,17.0,45,0.00,,,0.00,972,WeatherCatV1.15B25,2013-06-21 18:37:00,
2013-06-21 13:40:00,91.5,67.8,29.62,SE,138,9.0,16.0,46,0.00,,,0.00,972,WeatherCatV1.15B25,2013-06-21 18:40:00,
2013-06-21 13:45:00,91.8,66.7,29.62,SE,136,6.0,18.0,44,0.00,,,0.00,960,WeatherCatV1.15B25,2013-06-21 18:45:00,
2013-06-21 13:50:00,92.1,67.7,29.62,SSW,206,6.0,9.0,45,0.00,,,0.00,905,WeatherCatV1.15B25,2013-06-21 18:50:00,
2013-06-21 13:55:00,92.3,67.2,29.63,South,190,11.0,21.0,44,0.00,,,0.00,965,WeatherCatV1.15B25,2013-06-21 18:55:00,
2013-06-21 14:00:00,92.1,66.3,29.62,South,187,6.0,19.0,43,0.00,,,0.00,944,WeatherCatV1.15B25,2013-06-21 19:00:00,
2013-06-21 14:01:00,92.1,66.3,29.62,SSE,166,12.0,19.0,43,0.00,,,0.00,949,WeatherCatV1.15B25,2013-06-21 19:01:00,
2013-06-21 14:06:00,92.2,66.4,29.62,SSW,211,13.0,16.0,43,0.00,,,0.00,960,WeatherCatV1.15B25,2013-06-21 19:06:00,
2013-06-21 14:11:00,92.4,65.9,29.62,SSE,160,4.0,22.0,42,0.00,,,0.00,962,WeatherCatV1.15B25,2013-06-21 19:11:00,
2013-06-21 14:16:00,92.6,68.1,29.62,SSW,194,5.0,19.0,45,0.00,,,0.00,942,WeatherCatV1.15B25,2013-06-21 19:16:00,
2013-06-21 14:21:00,92.8,67.0,29.62,South,190,17.0,22.0,43,0.00,,,0.00,962,WeatherCatV1.15B25,2013-06-21 19:21:00,
2013-06-21 14:26:00,93.1,67.9,29.62,WSW,240,9.0,15.0,44,0.00,,,0.00,960,WeatherCatV1.15B25,2013-06-21 19:26:00,
2013-06-21 14:31:00,93.5,68.3,29.62,SSW,211,13.0,16.0,44,0.00,,,0.00,942,WeatherCatV1.15B25,2013-06-21 19:31:00,
2013-06-21 14:36:00,93.4,68.2,29.61,SW,217,21.0,21.0,44,0.00,,,0.00,942,WeatherCatV1.15B25,2013-06-21 19:36:00,
2013-06-21 14:41:00,93.5,66.2,29.61,SE,133,10.0,32.0,41,0.00,,,0.00,844,WeatherCatV1.15B25,2013-06-21 19:41:00,
2013-06-21 14:46:00,93.3,67.4,29.61,South,187,6.0,26.0,43,0.00,,,0.00,946,WeatherCatV1.15B25,2013-06-21 19:46:00,
2013-06-21 14:51:00,93.8,67.9,29.61,South,182,16.0,17.0,43,0.00,,,0.00,668,WeatherCatV1.15B25,2013-06-21 19:51:00,
2013-06-21 14:56:00,93.2,67.3,29.61,South,186,10.0,16.0,43,0.00,,,0.00,452,WeatherCatV1.15B25,2013-06-21 19:56:00,
2013-06-21 15:01:00,93.0,67.8,29.61,South,188,22.0,22.0,44,0.00,,,0.00,438,WeatherCatV1.15B25,2013-06-21 20:01:00,
2013-06-21 15:06:00,93.0,65.8,29.61,SW,221,23.0,23.0,41,0.00,,,0.00,677,WeatherCatV1.15B25,2013-06-21 20:06:00,
2013-06-21 15:11:00,93.8,66.5,29.61,SSW,205,9.0,18.0,41,0.00,,,0.00,940,WeatherCatV1.15B25,2013-06-21 20:11:00,
2013-06-21 15:16:00,94.4,65.6,29.61,SSW,200,17.0,25.0,39,0.00,,,0.00,872,WeatherCatV1.15B25,2013-06-21 20:16:00,
2013-06-21 15:21:00,94.8,65.9,29.61,South,187,17.0,25.0,39,0.00,,,0.00,856,WeatherCatV1.15B25,2013-06-21 20:21:00,
2013-06-21 15:26:00,94.9,66.0,29.61,SW,214,13.0,24.0,39,0.00,,,0.00,759,WeatherCatV1.15B25,2013-06-21 20:26:00,
2013-06-21 15:31:00,95.1,66.9,29.61,South,171,19.0,19.0,40,0.00,,,0.00,875,WeatherCatV1.15B25,2013-06-21 20:31:00,
2013-06-21 15:36:00,95.6,66.6,29.61,SSE,164,11.0,20.0,39,0.00,,,0.00,756,WeatherCatV1.15B25,2013-06-21 20:36:00,
2013-06-21 15:41:00,95.4,66.5,29.61,SSE,161,10.0,19.0,39,0.00,,,0.00,701,WeatherCatV1.15B25,2013-06-21 20:41:00,
2013-06-21 15:46:00,95.5,67.3,29.61,SSW,198,4.0,21.0,40,0.00,,,0.00,758,WeatherCatV1.15B25,2013-06-21 20:46:00,
2013-06-21 15:51:00,96.2,67.2,29.61,SW,221,22.0,22.0,39,0.00,,,0.00,851,WeatherCatV1.15B25,2013-06-21 20:51:00,
2013-06-21 15:56:00,96.4,67.3,29.61,South,174,6.0,17.0,39,0.00,,,0.00,833,WeatherCatV1.15B25,2013-06-21 20:56:00,
2013-06-21 16:01:00,96.4,66.6,29.60,South,191,5.0,17.0,38,0.00,,,0.00,810,WeatherCatV1.15B25,2013-06-21 21:01:00,
2013-06-21 16:06:00,96.5,67.4,29.61,South,187,15.0,24.0,39,0.00,,,0.00,782,WeatherCatV1.15B25,2013-06-21 21:06:00,
2013-06-21 16:11:00,96.1,64.8,29.61,SSW,202,21.0,21.0,36,0.00,,,0.00,800,WeatherCatV1.15B25,2013-06-21 21:11:00,
2013-06-21 16:16:00,96.1,65.6,29.61,SSW,196,12.0,14.0,37,0.00,,,0.00,788,WeatherCatV1.15B25,2013-06-21 21:16:00,
2013-06-21 16:21:00,96.4,66.6,29.60,SW,221,12.0,13.0,38,0.00,,,0.00,768,WeatherCatV1.15B25,2013-06-21 21:21:00,
2013-06-21 16:26:00,96.4,67.3,29.60,SSW,199,11.0,12.0,39,0.00,,,0.00,666,WeatherCatV1.15B25,2013-06-21 21:26:00,
2013-06-21 16:31:00,96.3,67.3,29.60,SSE,150,2.0,18.0,39,0.00,,,0.00,747,WeatherCatV1.15B25,2013-06-21 21:31:00,
2013-06-21 16:36:00,96.3,68.0,29.60,South,175,11.0,17.0,40,0.00,,,0.00,510,WeatherCatV1.15B25,2013-06-21 21:36:00,
2013-06-21 16:41:00,96.1,66.3,29.60,SSW,204,5.0,21.0,38,0.00,,,0.00,733,WeatherCatV1.15B25,2013-06-21 21:41:00,
2013-06-21 16:46:00,96.3,68.0,29.60,WSW,252,0.0,16.0,40,0.00,,,0.00,707,WeatherCatV1.15B25,2013-06-21 21:46:00,
2013-06-21 16:51:00,96.4,67.3,29.60,WSW,241,6.0,19.0,39,0.00,,,0.00,696,WeatherCatV1.15B25,2013-06-21 21:51:00,
2013-06-21 16:56:00,96.5,67.4,29.60,SSW,202,16.0,22.0,39,0.00,,,0.00,691,WeatherCatV1.15B25,2013-06-21 21:56:00,
2013-06-21 17:01:00,96.5,66.7,29.59,SW,233,14.0,15.0,38,0.00,,,0.00,694,WeatherCatV1.15B25,2013-06-21 22:01:00,
2013-06-21 17:06:00,96.5,67.4,29.59,South,179,10.0,16.0,39,0.00,,,0.00,647,WeatherCatV1.15B25,2013-06-21 22:06:00,
2013-06-21 17:11:00,96.2,66.4,29.59,SSE,156,4.0,18.0,38,0.00,,,0.00,628,WeatherCatV1.15B25,2013-06-21 22:11:00,
2013-06-21 17:16:00,96.3,67.3,29.58,SSW,209,2.0,12.0,39,0.00,,,0.00,608,WeatherCatV1.15B25,2013-06-21 22:16:00,
2013-06-21 17:21:00,96.5,68.2,29.58,SSW,192,10.0,16.0,40,0.00,,,0.00,584,WeatherCatV1.15B25,2013-06-21 22:21:00,
2013-06-21 17:26:00,96.5,67.4,29.58,SSW,200,24.0,24.0,39,0.00,,,0.00,582,WeatherCatV1.15B25,2013-06-21 22:26:00,
2013-06-21 17:31:00,96.4,68.1,29.58,SSW,198,11.0,15.0,40,0.00,,,0.00,571,WeatherCatV1.15B25,2013-06-21 22:31:00,
2013-06-21 17:36:00,96.8,67.7,29.58,SSW,194,7.0,22.0,39,0.00,,,0.00,557,WeatherCatV1.15B25,2013-06-21 22:36:00,
2013-06-21 17:41:00,96.6,66.8,29.58,SW,215,13.0,26.0,38,0.00,,,0.00,508,WeatherCatV1.15B25,2013-06-21 22:41:00,
2013-06-21 17:46:00,96.3,67.3,29.58,SSW,198,9.0,22.0,39,0.00,,,0.00,503,WeatherCatV1.15B25,2013-06-21 22:46:00,
2013-06-21 17:51:00,96.2,67.2,29.58,SSW,207,10.0,13.0,39,0.00,,,0.00,501,WeatherCatV1.15B25,2013-06-21 22:51:00,
2013-06-21 17:56:00,96.4,68.1,29.58,South,183,13.0,16.0,40,0.00,,,0.00,471,WeatherCatV1.15B25,2013-06-21 22:56:00,
2013-06-21 18:01:00,96.0,67.7,29.57,SSE,148,14.0,15.0,40,0.00,,,0.00,244,WeatherCatV1.15B25,2013-06-21 23:01:00,
2013-06-21 18:06:00,95.2,67.0,29.57,South,174,7.0,17.0,40,0.00,,,0.00,478,WeatherCatV1.15B25,2013-06-21 23:06:00,
2013-06-21 18:11:00,95.5,67.3,29.57,SW,219,23.0,23.0,40,0.00,,,0.00,471,WeatherCatV1.15B25,2013-06-21 23:11:00,
2013-06-21 18:16:00,95.6,68.1,29.57,SW,232,14.0,19.0,41,0.00,,,0.00,454,WeatherCatV1.15B25,2013-06-21 23:16:00,
2013-06-21 18:21:00,95.4,67.9,29.57,SSW,202,6.0,26.0,41,0.00,,,0.00,436,WeatherCatV1.15B25,2013-06-21 23:21:00,
2013-06-21 18:26:00,95.2,67.7,29.57,SW,229,4.0,16.0,41,0.00,,,0.00,422,WeatherCatV1.15B25,2013-06-21 23:26:00,
2013-06-21 18:31:00,95.2,68.4,29.57,SSW,213,3.0,15.0,42,0.00,,,0.00,404,WeatherCatV1.15B25,2013-06-21 23:31:00,
2013-06-21 18:36:00,95.0,68.3,29.57,SSW,207,22.0,22.0,42,0.00,,,0.00,360,WeatherCatV1.15B25,2013-06-21 23:36:00,
2013-06-21 18:41:00,94.7,67.3,29.57,South,175,7.0,18.0,41,0.00,,,0.00,360,WeatherCatV1.15B25,2013-06-21 23:41:00,
2013-06-21 18:46:00,94.5,66.4,29.57,SW,217,13.0,26.0,40,0.00,,,0.00,348,WeatherCatV1.15B25,2013-06-21 23:46:00,
2013-06-21 18:51:00,94.5,66.4,29.57,SSW,211,5.0,13.0,40,0.00,,,0.00,329,WeatherCatV1.15B25,2013-06-21 23:51:00,
2013-06-21 18:56:00,94.4,67.0,29.57,South,190,11.0,24.0,41,0.00,,,0.00,313,WeatherCatV1.15B25,2013-06-21 23:56:00,
2013-06-21 19:01:00,94.4,67.7,29.58,SSE,165,3.0,21.0,42,0.00,,,0.00,290,WeatherCatV1.15B25,2013-06-22 00:01:00,
2013-06-21 19:06:00,94.1,65.3,29.58,SW,223,6.0,33.0,39,0.00,,,0.00,287,WeatherCatV1.15B25,2013-06-22 00:06:00,
2013-06-21 19:11:00,93.8,65.8,29.58,SSW,194,1.0,10.0,40,0.00,,,0.00,272,WeatherCatV1.15B25,2013-06-22 00:11:00,
2013-06-21 19:16:00,93.5,65.5,29.58,South,171,15.0,18.0,40,0.00,,,0.00,257,WeatherCatV1.15B25,2013-06-22 00:16:00,
2013-06-21 19:19:00,93.4,65.4,29.58,SSW,195,7.0,23.0,40,0.00,,,0.00,250,WeatherCatV1.15B25,2013-06-22 00:19:00,
2013-06-21 19:20:00,93.4,65.4,29.58,SSW,192,21.0,25.0,40,0.00,,,0.00,244,WeatherCatV1.15B25,2013-06-22 00:20:00,
2013-06-21 19:25:00,93.2,66.6,29.58,SSW,207,9.0,14.0,42,0.00,,,0.00,225,WeatherCatV1.15B25,2013-06-22 00:25:00,
2013-06-21 19:30:00,92.8,67.6,29.59,SSW,200,5.0,18.0,44,0.00,,,0.00,207,WeatherCatV1.15B25,2013-06-22 00:30:00,
2013-06-21 19:35:00,92.5,68.0,29.59,SSW,203,5.0,17.0,45,0.00,,,0.00,188,WeatherCatV1.15B25,2013-06-22 00:35:00,
2013-06-21 19:40:00,92.2,68.4,29.59,SSE,162,6.0,15.0,46,0.00,,,0.00,172,WeatherCatV1.15B25,2013-06-22 00:40:00,
2013-06-21 19:45:00,91.9,68.1,29.60,SW,222,10.0,15.0,46,0.00,,,0.00,153,WeatherCatV1.15B25,2013-06-22 00:45:00,
2013-06-21 19:50:00,91.8,68.0,29.60,SE,138,4.0,10.0,46,0.00,,,0.00,137,WeatherCatV1.15B25,2013-06-22 00:50:00,
2013-06-21 19:55:00,91.6,67.2,29.60,SSW,210,8.0,15.0,45,0.00,,,0.00,120,WeatherCatV1.15B25,2013-06-22 00:55:00,
2013-06-21 20:00:00,91.4,67.7,29.60,SSW,205,7.0,13.0,46,0.00,,,0.00,107,WeatherCatV1.15B25,2013-06-22 01:00:00,
2013-06-21 20:05:00,91.2,68.1,29.60,South,183,0.0,5.0,47,0.00,,,0.00,81,WeatherCatV1.15B25,2013-06-22 01:05:00,
2013-06-21 20:10:00,91.0,67.3,29.60,SSW,193,4.0,14.0,46,0.00,,,0.00,56,WeatherCatV1.15B25,2013-06-22 01:10:00,
2013-06-21 20:15:00,90.6,67.6,29.61,South,180,4.0,12.0,47,0.00,,,0.00,32,WeatherCatV1.15B25,2013-06-22 01:15:00,
2013-06-21 20:20:00,90.2,67.2,29.61,SSW,192,16.0,16.0,47,0.00,,,0.00,26,WeatherCatV1.15B25,2013-06-22 01:20:00,
2013-06-21 20:25:00,90.1,67.1,29.61,South,176,3.0,18.0,47,0.00,,,0.00,18,WeatherCatV1.15B25,2013-06-22 01:25:00,
2013-06-21 20:30:00,90.1,67.1,29.61,SSW,202,4.0,14.0,47,0.00,,,0.00,12,WeatherCatV1.15B25,2013-06-22 01:30:00,
2013-06-21 20:35:00,89.8,66.8,29.61,South,178,4.0,16.0,47,0.00,,,0.00,11,WeatherCatV1.15B25,2013-06-22 01:35:00,
2013-06-21 20:40:00,89.5,67.2,29.62,South,188,4.0,14.0,48,0.00,,,0.00,9,WeatherCatV1.15B25,2013-06-22 01:40:00,
2013-06-21 20:45:00,89.1,67.4,29.62,SSW,204,2.0,9.0,49,0.00,,,0.00,9,WeatherCatV1.15B25,2013-06-22 01:45:00,
2013-06-21 20:50:00,88.9,67.2,29.62,SSE,158,8.0,9.0,49,0.00,,,0.00,7,WeatherCatV1.15B25,2013-06-22 01:50:00,
2013-06-21 20:55:00,88.6,67.5,29.62,SW,214,1.0,15.0,50,0.00,,,0.00,5,WeatherCatV1.15B25,2013-06-22 01:55:00,
2013-06-21 21:00:00,88.3,67.3,29.62,South,190,4.0,12.0,50,0.00,,,0.00,0,WeatherCatV1.15B25,2013-06-22 02:00:00,
2013-06-21 21:05:00,88.0,67.6,29.63,South,186,0.0,4.0,51,0.00,,,0.00,0,WeatherCatV1.15B25,2013-06-22 02:05:00,
2013-06-21 21:10:00,87.9,67.5,29.63,SE,138,1.0,11.0,51,0.00,,,0.00,0,WeatherCatV1.15B25,2013-06-22 02:10:00,
2013-06-21 21:15:00,87.6,67.8,29.62,SSW,207,9.0,9.0,52,0.00,,,0.00,0,WeatherCatV1.15B25,2013-06-22 02:15:00,
2013-06-21 21:20:00,87.5,67.7,29.62,East,98,3.0,12.0,52,0.00,,,0.00,0,WeatherCatV1.15B25,2013-06-22 02:20:00,
2013-06-21 21:25:00,87.4,67.6,29.62,South,189,9.0,10.0,52,0.00,,,0.00,0,WeatherCatV1.15B25,2013-06-22 02:25:00,
2013-06-21 21:30:00,87.1,67.3,29.62,SSW,192,0.0,7.0,52,0.00,,,0.00,0,WeatherCatV1.15B25,2013-06-22 02:30:00,
2013-06-21 21:35:00,87.0,67.2,29.62,SSW,195,3.0,12.0,52,0.00,,,0.00,0,WeatherCatV1.15B25,2013-06-22 02:35:00,
2013-06-21 21:40:00,86.9,67.1,29.62,SW,215,4.0,14.0,52,0.00,,,0.00,0,WeatherCatV1.15B25,2013-06-22 02:40:00,
2013-06-21 21:45:00,86.7,67.5,29.62,South,175,3.0,12.0,53,0.00,,,0.00,0,WeatherCatV1.15B25,2013-06-22 02:45:00,
2013-06-21 21:50:00,86.5,67.3,29.62,SSE,150,6.0,14.0,53,0.00,,,0.00,0,WeatherCatV1.15B25,2013-06-22 02:50:00,
2013-06-21 21:55:00,86.3,67.1,29.62,South,183,4.0,14.0,53,0.00,,,0.00,0,WeatherCatV1.15B25,2013-06-22 02:55:00,
2013-06-21 22:00:00,86.2,67.0,29.63,SSE,167,7.0,13.0,53,0.00,,,0.00,0,WeatherCatV1.15B25,2013-06-22 03:00:00,
2013-06-21 22:05:00,86.0,66.8,29.62,ESE,115,5.0,10.0,53,0.00,,,0.00,0,WeatherCatV1.15B25,2013-06-22 03:05:00,
2013-06-21 22:10:00,85.8,66.7,29.62,SSW,202,10.0,10.0,53,0.00,,,0.00,0,WeatherCatV1.15B25,2013-06-22 03:10:00,
2013-06-21 22:15:00,85.8,66.7,29.62,SE,127,3.0,17.0,53,0.00,,,0.00,0,WeatherCatV1.15B25,2013-06-22 03:15:00,
2013-06-21 22:20:00,85.7,67.1,29.62,SSE,159,11.0,11.0,54,0.00,,,0.00,0,WeatherCatV1.15B25,2013-06-22 03:20:00,
2013-06-21 22:25:00,85.6,67.0,29.63,South,184,4.0,14.0,54,0.00,,,0.00,0,WeatherCatV1.15B25,2013-06-22 03:25:00,
2013-06-21 22:30:00,85.4,66.8,29.63,SSE,163,6.0,13.0,54,0.00,,,0.00,0,WeatherCatV1.15B25,2013-06-22 03:30:00,
2013-06-21 22:35:00,85.2,66.6,29.63,SSE,162,4.0,4.0,54,0.00,,,0.00,0,WeatherCatV1.15B25,2013-06-22 03:35:00,
2013-06-21 22:40:00,85.1,67.1,29.63,South,183,6.0,13.0,55,0.00,,,0.00,0,WeatherCatV1.15B25,2013-06-22 03:40:00,
2013-06-21 22:45:00,85.0,67.0,29.64,SSE,164,1.0,13.0,55,0.00,,,0.00,0,WeatherCatV1.15B25,2013-06-22 03:45:00,
2013-06-21 22:50:00,84.7,66.7,29.64,South,171,3.0,13.0,55,0.00,,,0.00,0,WeatherCatV1.15B25,2013-06-22 03:50:00,
2013-06-21 22:55:00,84.6,66.6,29.65,SSE,147,6.0,16.0,55,0.00,,,0.00,0,WeatherCatV1.15B25,2013-06-22 03:55:00,
2013-06-21 23:00:00,84.3,66.9,29.65,South,174,12.0,12.0,56,0.00,,,0.00,0,WeatherCatV1.15B25,2013-06-22 04:00:00,
2013-06-21 23:01:00,84.3,66.9,29.65,South,171,10.0,13.0,56,0.00,,,0.00,0,WeatherCatV1.15B25,2013-06-22 04:01:00,
2013-06-21 23:06:00,84.1,66.7,29.65,South,189,12.0,14.0,56,0.00,,,0.00,0,WeatherCatV1.15B25,2013-06-22 04:06:00,
2013-06-21 23:11:00,84.0,67.1,29.65,SW,215,7.0,14.0,57,0.00,,,0.00,0,WeatherCatV1.15B25,2013-06-22 04:11:00,
2013-06-21 23:16:00,84.0,67.1,29.65,SE,146,10.0,17.0,57,0.00,,,0.00,0,WeatherCatV1.15B25,2013-06-22 04:16:00,
2013-06-21 23:21:00,83.8,66.9,29.66,South,180,4.0,18.0,57,0.00,,,0.00,0,WeatherCatV1.15B25,2013-06-22 04:21:00,
2013-06-21 23:26:00,83.6,67.2,29.66,SSW,202,3.0,10.0,58,0.00,,,0.00,0,WeatherCatV1.15B25,2013-06-22 04:26:00,
2013-06-21 23:31:00,83.6,67.2,29.66,SSW,209,6.0,10.0,58,0.00,,,0.00,0,WeatherCatV1.15B25,2013-06-22 04:31:00,
2013-06-21 23:32:00,83.6,67.2,29.66,SSW,192,6.0,14.0,58,0.00,,,0.00,0,WeatherCatV1.15B25,2013-06-22 04:32:00,
2013-06-21 23:37:00,83.4,67.5,29.67,SE,144,7.0,7.0,59,0.00,,,0.00,0,WeatherCatV1.15B25,2013-06-22 04:37:00,
2013-06-21 23:42:00,83.2,67.4,29.67,South,191,5.0,11.0,59,0.00,,,0.00,0,WeatherCatV1.15B25,2013-06-22 04:42:00,
2013-06-21 23:47:00,83.2,67.8,29.68,SE,135,4.0,13.0,60,0.00,,,0.00,0,WeatherCatV1.15B25,2013-06-22 04:47:00,
2013-06-21 23:52:00,83.2,67.8,29.68,South,172,4.0,12.0,60,0.00,,,0.00,0,WeatherCatV1.15B25,2013-06-22 04:52:00,
2013-06-21 23:57:00,83.2,68.3,29.69,South,187,5.0,13.0,61,0.00,,,0.00,0,WeatherCatV1.15B25,2013-06-22 04:57:00,